Tracking 35055 objects as of 18-Aug-2026
HD Live streaming from Space Station
objects crossing your sky now

SPACEBEE-115


SPACEBEE-115 is no longer on orbit


NORAD ID: 52016
Int'l Code: 2022-026J
Launch date: March 15, 2022
Source: United States (US)
Launch site: Kodiak Island, Alaska (KODAK)
Decay date: 2024-03-14
Your satellite tracking list
Your tracking list is empty




NASA's NSSDC Master Catalog

Two Line Element Set (TLE):
1 52016U 22026J   24070.98681389  .13746111  26734-5  95794-3 0  9999
2 52016  97.4595  91.0022 0009682 221.9325 138.1234 16.40598285111146
Source of the keplerian elements: AFSPC